Terminal Aerodrome Forecast
Issued by NWS

Home | Current Version | Previous Version | Text Only | Print | Product List | Glossary On
Versions: 1 2 3 4 5 6 7 8 9 10 11 12 13 14 15 16 17
085
FTUS43 KGRR 041741
TAFLAN
TAF
KLAN 041741Z 0418/0518 14008KT P6SM OVC025
     FM042000 15009KT 3SM -SN BR OVC015
     FM042100 15009KT 2SM -SN BR OVC009
     FM042200 16009KT 3/4SM -SN BR OVC004
     FM050500 23008KT 3SM -SN BR OVC009
     FM050700 26007KT 6SM BR OVC015
     FM051600 24008KT P6SM OVC025=

USA.gov is the U.S. government's official web portal to all federal, state and local government web resources and services.